Preview of NWS' New Version of Forecast
This preview is not operational and should not be used for support decisions.

Regional Weather Roundup (RWR)

Issued by National Weather Service (NWS)

                            
000
ASUS45 KBOI 181810
RWRID 

IDAHO REGIONAL WEATHER ROUNDUP
NATIONAL WEATHER SERVICE BOISE ID
1100 AM MST MON FEB 18 2019

NOTE: "FAIR" INDICATES FEW OR NO CLOUDS BELOW 12000 FEET
WITH NO SIGNIFICANT WEATHER AND/OR OBSTRUCTIONS TO VISIBILITY

IDZ012-014-181900-
SOUTHWEST IDAHO

  
CITY           SKY/WX    TMP DP  RH WIND       PRES   REMARKS
BOISE          CLOUDY    30  22  72 NW15      30.15R WCI  19          
CALDWELL       CLOUDY    32  23  69 W17       30.19R WCI  21          
MOUNTAIN HOME  CLOUDY    32  32 100 NW22        N/A  WCI  20          
$$

IDZ016-017-181900-
SOUTHCENTRAL IDAHO

  
CITY           SKY/WX    TMP DP  RH WIND       PRES   REMARKS
BURLEY         MIX PCPN  23  20  88 W12G17    30.06R FOG     WCI  12  
JEROME         CLOUDY    24  21  88 SW12      30.07S WCI  13          
TWIN FALLS     CLOUDY    23  19  85 W17       30.07R WCI   9          
$$

IDZ019>023-181900-
SOUTHEAST IDAHO

  
CITY           SKY/WX    TMP DP  RH WIND       PRES   REMARKS
IDAHO FALLS    SUNNY      6   0  76 NW5       30.04R WCI  -3          
POCATELLO      SUNNY     19   9  65 W8        30.07R WCI   9          
REXBURG        SUNNY     12   1  61 CALM      30.02R                  
$$

IDZ006-010-011-018-031-032-181900-
CENTRAL IDAHO MOUNTAINS

  
CITY           SKY/WX    TMP DP  RH WIND       PRES   REMARKS
MCCALL         PTSUNNY   19   7  59 N8        30.03S WCI   9          
HAILEY         CLOUDY    12   3  67 W6        30.01S WCI   3          
STANLEY          N/A      8   1  73 CALM      29.94S                  
SALMON         CLOUDY    18  11  74 CALM      30.09S                  
CHALLIS        CLOUDY    20   8  60 CALM      29.99S                  
$$

IDZ002-004-006-007-026-181900-
NORTHERN IDAHO

  
CITY           SKY/WX    TMP DP  RH WIND       PRES   REMARKS
LEWISTON       PTSUNNY   27  13  55 VRB5      30.35R WCI  22          
LOWELL         NOT AVBL                                               
COEUR D'ALENE  MOSUNNY   20   7  57 E7        30.30S WCI  11          
MULLAN PASS    SUNNY      4   1  88 S6        29.96F WCI  -7          
$$